TRA34Q EHAM-LPMA

Flight info

Callsign TRA34Q
Flight time N/A
Altitude 34000
Route IDRID L980 LOGAN DCT SAM M195 LORKU DCT EBOMO DCT COQUE DCT KORUL DCT DEMOS DCT ASMAR DCT LIDRO
Aircraft B738/M-SDE2E3FGHIJ1RWXYZ/LB1

Departure

Time 2026-05-05 17:23
Airport Amsterdam Airport Schiphol (EHAM)

Arrival

Time N/A
Airport Cristiano Ronaldo International Airport (LPMA)
Time Latitude Longitude Altitude Speed Heading
2026-05-05 16:45 52.30467 4.76568 -2 ft 0 kts 58°
2026-05-05 17:09 52.30466 4.76565 -2 ft 2 kts 58°
2026-05-05 17:09 52.30457 4.76541 -2 ft 3 kts 66°
2026-05-05 17:09 52.30452 4.76513 -2 ft 3 kts 103°
2026-05-05 17:09 52.30456 4.76496 -2 ft 1 kts 135°
2026-05-05 17:10 52.30457 4.76495 -2 ft 1 kts 135°
2026-05-05 17:11 52.30454 4.76499 -2 ft 3 kts 141°
2026-05-05 17:12 52.30418 4.76532 -2 ft 8 kts 151°
2026-05-05 17:12 52.30362 4.76580 -2 ft 10 kts 163°
2026-05-05 17:12 52.30295 4.76525 -2 ft 13 kts 236°
2026-05-05 17:12 52.30239 4.76379 -2 ft 19 kts 238°
2026-05-05 17:13 52.30158 4.76164 -2 ft 26 kts 238°
2026-05-05 17:13 52.30050 4.75888 -2 ft 31 kts 237°
2026-05-05 17:13 52.29941 4.75601 -2 ft 28 kts 238°
2026-05-05 17:13 52.29851 4.75362 -2 ft 16 kts 238°
2026-05-05 17:14 52.29848 4.75191 -2 ft 16 kts 301°
2026-05-05 17:14 52.29917 4.75054 -2 ft 16 kts 311°
2026-05-05 17:14 52.30002 4.74896 -2 ft 21 kts 311°
2026-05-05 17:14 52.30104 4.74711 3 ft 22 kts 311°
2026-05-05 17:15 52.30208 4.74515 9 ft 24 kts 311°
2026-05-05 17:15 52.30321 4.74305 -1 ft 24 kts 311°
2026-05-05 17:15 52.30467 4.74199 -2 ft 24 kts
2026-05-05 17:15 52.30627 4.74212 -2 ft 23 kts
2026-05-05 17:16 52.30782 4.74226 -2 ft 22 kts
2026-05-05 17:16 52.30933 4.74240 -2 ft 21 kts
2026-05-05 17:16 52.31079 4.74254 -2 ft 21 kts
2026-05-05 17:16 52.31230 4.74268 -2 ft 23 kts
2026-05-05 17:17 52.31398 4.74283 -2 ft 25 kts
2026-05-05 17:17 52.31517 4.74295 -2 ft 26 kts
2026-05-05 17:17 52.31705 4.74313 -2 ft 27 kts
2026-05-05 17:17 52.31888 4.74329 -2 ft 25 kts
2026-05-05 17:18 52.32018 4.74299 -2 ft 16 kts 306°
2026-05-05 17:18 52.32034 4.74113 -2 ft 19 kts 273°
2026-05-05 17:18 52.32043 4.73862 -2 ft 24 kts 273°
2026-05-05 17:18 52.32053 4.73583 -2 ft 24 kts 274°
2026-05-05 17:19 52.32099 4.73345 -2 ft 22 kts 314°
2026-05-05 17:19 52.32212 4.73183 -2 ft 21 kts 319°
2026-05-05 17:19 52.32329 4.73018 -2 ft 24 kts 318°
2026-05-05 17:19 52.32461 4.72833 -2 ft 26 kts 320°
2026-05-05 17:20 52.32594 4.72645 -2 ft 24 kts 320°
2026-05-05 17:20 52.32712 4.72460 -2 ft 23 kts 311°
2026-05-05 17:20 52.32816 4.72267 -2 ft 22 kts 311°
2026-05-05 17:20 52.32919 4.72076 -2 ft 24 kts 312°
2026-05-05 17:21 52.33036 4.71857 -2 ft 27 kts 311°
2026-05-05 17:21 52.33146 4.71637 -2 ft 22 kts 290°
2026-05-05 17:21 52.33084 4.71430 -2 ft 22 kts 221°
2026-05-05 17:22 52.32861 4.71063 -2 ft 19 kts 261°
2026-05-05 17:22 52.32901 4.70889 -3 ft 16 kts 347°
2026-05-05 17:22 52.33031 4.70907 -5 ft 32 kts
2026-05-05 17:22 52.33524 4.70954 -2 ft 108 kts
2026-05-05 17:23 52.34495 4.71032 22 ft 168 kts
2026-05-05 17:23 52.35648 4.71130 1018 ft 161 kts
2026-05-05 17:23 52.36751 4.71198 2053 ft 163 kts
2026-05-05 17:23 52.37977 4.71251 2413 ft 189 kts
2026-05-05 17:24 52.39375 4.71316 2631 ft 211 kts
2026-05-05 17:24 52.40921 4.71401 2850 ft 236 kts
2026-05-05 17:24 52.42602 4.71508 3518 ft 243 kts
2026-05-05 17:24 52.44302 4.71564 4351 ft 247 kts 355°
2026-05-05 17:25 52.45887 4.70441 5152 ft 258 kts 321°
2026-05-05 17:25 52.46722 4.69034 5705 ft 261 kts 314°
2026-05-05 17:25 52.47796 4.65445 6595 ft 273 kts 274°
2026-05-05 17:25 52.47623 4.62346 7436 ft 274 kts 263°
2026-05-05 17:26 52.47315 4.59232 8178 ft 278 kts 262°
2026-05-05 17:26 52.46994 4.56131 8928 ft 282 kts 259°
2026-05-05 17:26 52.46165 4.53225 9676 ft 287 kts 229°
2026-05-05 17:26 52.44625 4.51126 10318 ft 294 kts 214°
2026-05-05 17:27 52.42841 4.49223 10485 ft 318 kts 218°
2026-05-05 17:27 52.41362 4.46422 10653 ft 337 kts 241°
2026-05-05 17:27 52.40236 4.42953 10994 ft 351 kts 243°
2026-05-05 17:27 52.39113 4.39373 11623 ft 356 kts 243°
2026-05-05 17:28 52.37971 4.35764 12335 ft 358 kts 243°
2026-05-05 17:28 52.36808 4.32135 13048 ft 361 kts 243°
2026-05-05 17:28 52.35627 4.28487 13715 ft 365 kts 243°
2026-05-05 17:28 52.34425 4.24800 14317 ft 369 kts 242°
2026-05-05 17:29 52.33211 4.21093 14963 ft 371 kts 242°
2026-05-05 17:29 52.31988 4.17373 15608 ft 372 kts 242°